Time,TemperatureF,DewpointF,PressureIn,WindDirection,WindDirectionDegrees,WindSpeedMPH,WindSpeedGustMPH,Humidity,HourlyPrecipIn,Conditions,Clouds,dailyrainin,SoftwareType,DateUTC
2013-08-16 00:00:00,64.7,46.1,30.15,East,88,0.0,0.0,51,0.00,,,0.01,Wunderground v.1.15,2013-08-16 05:00:00,
2013-08-16 00:05:00,64.8,46.2,30.14,East,89,0.0,0.0,51,0.00,,,0.00,Wunderground v.1.15,2013-08-16 05:05:00,
2013-08-16 00:10:00,64.7,46.1,30.14,East,90,0.0,1.0,51,0.00,,,-99.99,WeatherLink 6.0.3,2013-08-16 05:10:00,
2013-08-16 00:14:00,64.6,46.6,30.15,East,89,0.0,0.0,52,0.00,,,0.00,Wunderground v.1.15,2013-08-16 05:14:00,
2013-08-16 00:15:00,64.6,46.6,30.15,North,-999,0.0,0.0,52,0.00,,,-99.99,WeatherLink 6.0.3,2013-08-16 05:15:00,
2013-08-16 00:20:00,64.5,47.0,30.15,East,88,0.0,0.0,53,0.00,,,0.00,Wunderground v.1.15,2013-08-16 05:20:00,
2013-08-16 00:25:00,64.4,47.4,30.15,East,88,0.0,0.0,54,0.00,,,0.00,Wunderground v.1.15,2013-08-16 05:25:00,
2013-08-16 00:30:00,64.5,47.5,30.14,East,89,0.0,0.0,54,0.00,,,0.00,Wunderground v.1.15,2013-08-16 05:30:00,
2013-08-16 00:35:00,64.5,48.0,30.15,East,88,0.0,0.0,55,0.00,,,0.00,Wunderground v.1.15,2013-08-16 05:35:00,
2013-08-16 00:40:00,64.5,48.4,30.15,East,89,0.0,0.0,56,0.00,,,0.00,Wunderground v.1.15,2013-08-16 05:40:00,
2013-08-16 00:45:00,64.8,49.2,30.15,East,89,0.0,0.0,57,0.00,,,0.00,Wunderground v.1.15,2013-08-16 05:45:00,
2013-08-16 00:50:00,64.9,50.2,30.15,North,-999,0.0,0.0,59,0.00,,,-99.99,WeatherLink 6.0.3,2013-08-16 05:50:00,
2013-08-16 00:54:00,65.0,50.3,30.15,East,88,0.0,0.0,59,0.00,,,0.00,Wunderground v.1.15,2013-08-16 05:54:00,
2013-08-16 01:00:00,65.0,50.8,30.15,East,89,0.0,0.0,60,0.00,,,0.00,Wunderground v.1.15,2013-08-16 06:00:00,
2013-08-16 01:05:00,65.0,51.2,30.15,East,88,0.0,0.0,61,0.00,,,0.00,Wunderground v.1.15,2013-08-16 06:05:00,
2013-08-16 01:10:00,65.0,51.7,30.15,East,88,0.0,0.0,62,0.00,,,0.00,Wunderground v.1.15,2013-08-16 06:10:00,
2013-08-16 01:15:00,65.0,51.7,30.15,East,89,0.0,0.0,62,0.00,,,0.00,Wunderground v.1.15,2013-08-16 06:15:00,
2013-08-16 01:20:00,64.9,52.0,30.15,East,90,0.0,0.0,63,0.00,,,0.00,Wunderground v.1.15,2013-08-16 06:20:00,
2013-08-16 01:30:00,65.0,52.1,30.14,East,98,0.0,0.0,63,0.00,,,0.00,Wunderground v.1.15,2013-08-16 06:30:00,
2013-08-16 01:35:00,65.1,52.6,30.14,East,98,0.0,0.0,64,0.00,,,0.00,Wunderground v.1.15,2013-08-16 06:35:00,
2013-08-16 01:40:00,65.1,52.6,30.14,ESE,103,0.0,3.0,64,0.00,,,0.00,Wunderground v.1.15,2013-08-16 06:40:00,
2013-08-16 01:45:00,65.1,53.0,30.14,ESE,105,1.0,3.0,65,0.00,,,0.00,Wunderground v.1.15,2013-08-16 06:45:00,
2013-08-16 01:50:00,65.2,53.1,30.13,ESE,112,1.0,4.0,65,0.00,,,-99.99,WeatherLink 6.0.3,2013-08-16 06:50:00,
2013-08-16 01:54:00,65.2,53.1,30.13,ESE,117,1.0,3.0,65,0.00,,,0.00,Wunderground v.1.15,2013-08-16 06:54:00,
2013-08-16 02:00:00,65.3,53.6,30.13,ESE,117,1.0,1.0,66,0.00,,,0.00,Wunderground v.1.15,2013-08-16 07:00:00,
2013-08-16 02:05:00,65.4,53.7,30.14,ESE,119,1.0,1.0,66,0.00,,,0.00,Wunderground v.1.15,2013-08-16 07:05:00,
2013-08-16 02:10:00,65.6,53.9,30.14,SE,125,1.0,1.0,66,0.00,,,0.00,Wunderground v.1.15,2013-08-16 07:10:00,
2013-08-16 02:15:00,65.7,54.4,30.14,SE,128,1.0,1.0,67,0.00,,,0.00,Wunderground v.1.15,2013-08-16 07:15:00,
2013-08-16 02:20:00,65.7,54.4,30.14,SE,126,0.0,0.0,67,0.00,,,0.00,Wunderground v.1.15,2013-08-16 07:20:00,
2013-08-16 02:25:00,65.8,54.5,30.14,SE,127,0.0,0.0,67,0.00,,,0.00,Wunderground v.1.15,2013-08-16 07:25:00,
2013-08-16 02:30:00,65.8,54.5,30.14,SE,126,0.0,0.0,67,0.00,,,0.00,Wunderground v.1.15,2013-08-16 07:30:00,
2013-08-16 02:35:00,65.7,54.4,30.14,SE,127,0.0,0.0,67,0.00,,,0.00,Wunderground v.1.15,2013-08-16 07:35:00,
2013-08-16 02:40:00,65.7,54.4,30.14,SE,127,0.0,0.0,67,0.00,,,0.00,Wunderground v.1.15,2013-08-16 07:40:00,
2013-08-16 02:45:00,65.6,53.9,30.15,SE,128,0.0,0.0,66,0.00,,,0.00,Wunderground v.1.15,2013-08-16 07:45:00,
2013-08-16 02:50:00,65.5,53.8,30.14,SE,128,0.0,0.0,66,0.00,,,0.00,Wunderground v.1.15,2013-08-16 07:50:00,
2013-08-16 02:55:00,65.4,53.7,30.14,SE,128,0.0,0.0,66,0.00,,,0.00,Wunderground v.1.15,2013-08-16 07:55:00,
2013-08-16 03:03:00,65.4,53.7,30.14,North,-999,0.0,0.0,66,0.00,,,-99.99,WeatherLink 6.0.3,2013-08-16 08:03:00,
2013-08-16 03:05:00,65.4,53.7,30.14,North,-999,0.0,0.0,66,0.00,,,-99.99,WeatherLink 6.0.3,2013-08-16 08:05:00,
2013-08-16 03:10:00,65.3,53.6,30.14,SE,128,0.0,0.0,66,0.00,,,0.00,Wunderground v.1.15,2013-08-16 08:10:00,
2013-08-16 03:15:00,65.3,53.2,30.14,SE,128,0.0,0.0,65,0.00,,,0.00,Wunderground v.1.15,2013-08-16 08:15:00,
2013-08-16 03:20:00,65.2,53.6,30.14,SE,128,0.0,0.0,66,0.00,,,0.00,Wunderground v.1.15,2013-08-16 08:20:00,
2013-08-16 03:25:00,65.2,53.6,30.14,SE,128,0.0,2.0,66,0.00,,,0.00,Wunderground v.1.15,2013-08-16 08:25:00,
2013-08-16 03:30:00,65.1,53.0,30.14,SE,128,0.0,0.0,65,0.00,,,0.00,Wunderground v.1.15,2013-08-16 08:30:00,
2013-08-16 03:35:00,65.0,52.9,30.13,SE,128,1.0,1.0,65,0.00,,,0.00,Wunderground v.1.15,2013-08-16 08:35:00,
2013-08-16 03:40:00,65.0,52.9,30.13,SE,126,1.0,1.0,65,0.00,,,0.00,Wunderground v.1.15,2013-08-16 08:40:00,
2013-08-16 03:48:00,65.0,52.9,30.13,SE,135,0.0,1.0,65,0.00,,,-99.99,WeatherLink 6.0.3,2013-08-16 08:48:00,
2013-08-16 03:50:00,64.8,52.3,30.13,North,-999,0.0,0.0,64,0.00,,,-99.99,WeatherLink 6.0.3,2013-08-16 08:50:00,
2013-08-16 03:54:00,64.8,52.3,30.13,SE,126,0.0,0.0,64,0.00,,,0.00,Wunderground v.1.15,2013-08-16 08:54:00,
2013-08-16 03:59:00,64.8,52.3,30.13,SE,126,0.0,0.0,64,0.00,,,0.00,Wunderground v.1.15,2013-08-16 08:59:00,
2013-08-16 04:05:00,64.7,51.8,30.13,SE,126,0.0,0.0,63,0.00,,,0.00,Wunderground v.1.15,2013-08-16 09:05:00,
2013-08-16 04:10:00,64.7,51.8,30.13,SE,126,0.0,0.0,63,0.00,,,0.00,Wunderground v.1.15,2013-08-16 09:10:00,
2013-08-16 04:15:00,64.6,51.7,30.13,SE,126,0.0,0.0,63,0.00,,,0.00,Wunderground v.1.15,2013-08-16 09:15:00,
2013-08-16 04:20:00,64.6,51.7,30.13,SE,126,0.0,0.0,63,0.00,,,0.00,Wunderground v.1.15,2013-08-16 09:20:00,
2013-08-16 04:25:00,64.6,51.7,30.13,SE,126,0.0,0.0,63,0.00,,,0.00,Wunderground v.1.15,2013-08-16 09:25:00,
2013-08-16 04:30:00,64.6,51.7,30.13,SE,126,0.0,0.0,63,0.00,,,0.00,Wunderground v.1.15,2013-08-16 09:30:00,
2013-08-16 04:35:00,64.5,51.6,30.13,SE,126,0.0,0.0,63,0.00,,,0.00,Wunderground v.1.15,2013-08-16 09:35:00,
2013-08-16 04:40:00,64.5,51.6,30.13,SE,126,0.0,0.0,63,0.00,,,0.00,Wunderground v.1.15,2013-08-16 09:40:00,
2013-08-16 04:48:00,64.5,51.6,30.13,North,-999,0.0,0.0,63,0.00,,,-99.99,WeatherLink 6.0.3,2013-08-16 09:48:00,
2013-08-16 04:50:00,64.5,51.2,30.13,North,-999,0.0,0.0,62,0.00,,,-99.99,WeatherLink 6.0.3,2013-08-16 09:50:00,
2013-08-16 04:54:00,64.5,51.2,30.13,SE,126,0.0,0.0,62,0.00,,,0.00,Wunderground v.1.15,2013-08-16 09:54:00,
2013-08-16 04:59:00,64.4,51.1,30.13,SE,126,0.0,0.0,62,0.00,,,0.00,Wunderground v.1.15,2013-08-16 09:59:00,
2013-08-16 05:04:00,64.4,51.1,30.13,SE,126,0.0,0.0,62,0.00,,,0.00,Wunderground v.1.15,2013-08-16 10:04:00,
2013-08-16 05:05:00,64.4,51.1,30.13,North,-999,0.0,0.0,62,0.00,,,-99.99,WeatherLink 6.0.3,2013-08-16 10:05:00,
2013-08-16 05:10:00,64.4,50.7,30.13,SE,126,0.0,0.0,61,0.00,,,0.00,Wunderground v.1.15,2013-08-16 10:10:00,
2013-08-16 05:15:00,64.3,50.1,30.13,SE,126,0.0,0.0,60,0.00,,,0.00,Wunderground v.1.15,2013-08-16 10:15:00,
2013-08-16 05:20:00,64.2,50.0,30.13,SE,126,0.0,0.0,60,0.00,,,0.00,Wunderground v.1.15,2013-08-16 10:20:00,
2013-08-16 05:25:00,64.1,49.9,30.12,SE,126,0.0,0.0,60,0.00,,,0.00,Wunderground v.1.15,2013-08-16 10:25:00,
2013-08-16 05:30:00,64.0,49.4,30.12,SE,126,0.0,0.0,59,0.00,,,0.00,Wunderground v.1.15,2013-08-16 10:30:00,
2013-08-16 05:35:00,63.9,49.3,30.12,SE,135,0.0,1.0,59,0.00,,,-99.99,WeatherLink 6.0.3,2013-08-16 10:35:00,
2013-08-16 05:39:00,63.9,49.3,30.13,SE,126,0.0,0.0,59,0.00,,,0.00,Wunderground v.1.15,2013-08-16 10:39:00,
2013-08-16 05:44:00,63.9,49.3,30.13,SE,125,0.0,0.0,59,0.00,,,0.00,Wunderground v.1.15,2013-08-16 10:44:00,
2013-08-16 05:49:00,64.0,49.4,30.13,SE,126,0.0,0.0,59,0.00,,,0.00,Wunderground v.1.15,2013-08-16 10:49:00,
2013-08-16 05:50:00,64.0,49.4,30.13,North,-999,0.0,0.0,59,0.00,,,-99.99,WeatherLink 6.0.3,2013-08-16 10:50:00,
2013-08-16 05:55:00,64.0,49.4,30.12,SE,125,0.0,0.0,59,0.00,,,0.00,Wunderground v.1.15,2013-08-16 10:55:00,
2013-08-16 06:00:00,63.8,49.2,30.12,SE,126,0.0,0.0,59,0.00,,,0.00,Wunderground v.1.15,2013-08-16 11:00:00,
2013-08-16 06:05:00,63.7,49.1,30.13,SE,125,0.0,0.0,59,0.00,,,0.00,Wunderground v.1.15,2013-08-16 11:05:00,
2013-08-16 06:10:00,63.6,49.0,30.13,SE,126,0.0,0.0,59,0.00,,,0.00,Wunderground v.1.15,2013-08-16 11:10:00,
2013-08-16 06:15:00,63.6,49.0,30.13,SE,126,0.0,0.0,59,0.00,,,0.00,Wunderground v.1.15,2013-08-16 11:15:00,
2013-08-16 06:20:00,63.6,48.5,30.13,SE,126,0.0,0.0,58,0.00,,,0.00,Wunderground v.1.15,2013-08-16 11:20:00,
2013-08-16 06:25:00,63.5,48.9,30.14,SE,126,0.0,0.0,59,0.00,,,0.00,Wunderground v.1.15,2013-08-16 11:25:00,
2013-08-16 06:30:00,63.5,48.9,30.14,SE,126,0.0,0.0,59,0.00,,,0.00,Wunderground v.1.15,2013-08-16 11:30:00,
2013-08-16 06:35:00,63.5,48.5,30.15,North,-999,0.0,0.0,58,0.00,,,-99.99,WeatherLink 6.0.3,2013-08-16 11:35:00,
2013-08-16 06:39:00,63.5,48.0,30.15,SE,125,0.0,0.0,57,0.00,,,0.00,Wunderground v.1.15,2013-08-16 11:39:00,
2013-08-16 06:44:00,63.6,47.6,30.15,SE,126,0.0,0.0,56,0.00,,,0.00,Wunderground v.1.15,2013-08-16 11:44:00,
2013-08-16 06:49:00,63.5,47.5,30.15,SE,126,0.0,0.0,56,0.00,,,0.00,Wunderground v.1.15,2013-08-16 11:49:00,
2013-08-16 06:50:00,63.4,47.4,30.15,North,-999,0.0,0.0,56,0.00,,,-99.99,WeatherLink 6.0.3,2013-08-16 11:50:00,
2013-08-16 06:54:00,63.4,46.9,30.16,SE,126,0.0,0.0,55,0.00,,,0.00,Wunderground v.1.15,2013-08-16 11:54:00,
2013-08-16 06:59:00,63.5,45.6,30.16,SE,126,0.0,0.0,52,0.00,,,0.00,Wunderground v.1.15,2013-08-16 11:59:00,
2013-08-16 07:04:00,63.4,45.5,30.16,SE,126,0.0,0.0,52,0.00,,,0.00,Wunderground v.1.15,2013-08-16 12:04:00,
2013-08-16 07:05:00,63.4,44.9,30.16,North,-999,0.0,0.0,51,0.00,,,-99.99,WeatherLink 6.0.3,2013-08-16 12:05:00,
2013-08-16 07:10:00,63.4,44.9,30.16,SE,126,0.0,0.0,51,0.00,,,0.00,Wunderground v.1.15,2013-08-16 12:10:00,
2013-08-16 07:15:00,63.4,44.9,30.16,SE,125,0.0,0.0,51,0.00,,,0.00,Wunderground v.1.15,2013-08-16 12:15:00,
2013-08-16 07:20:00,63.7,45.2,30.17,North,-999,0.0,0.0,51,0.00,,,-99.99,WeatherLink 6.0.3,2013-08-16 12:20:00,
2013-08-16 07:25:00,63.8,45.8,30.17,SE,126,0.0,0.0,52,0.00,,,0.00,Wunderground v.1.15,2013-08-16 12:25:00,
2013-08-16 07:30:00,63.9,46.9,30.17,SE,125,0.0,0.0,54,0.00,,,0.00,Wunderground v.1.15,2013-08-16 12:30:00,
2013-08-16 07:35:00,63.9,47.4,30.17,SE,135,1.0,3.0,55,0.00,,,-99.99,WeatherLink 6.0.3,2013-08-16 12:35:00,
2013-08-16 07:40:00,63.9,47.9,30.17,SE,126,1.0,1.0,56,0.00,,,0.00,Wunderground v.1.15,2013-08-16 12:40:00,
2013-08-16 07:45:00,63.9,48.4,30.17,SE,126,0.0,1.0,57,0.00,,,0.00,Wunderground v.1.15,2013-08-16 12:45:00,
2013-08-16 07:50:00,64.0,48.5,30.17,SE,125,0.0,0.0,57,0.00,,,0.00,Wunderground v.1.15,2013-08-16 12:50:00,
2013-08-16 07:55:00,64.0,48.5,30.17,SE,126,0.0,0.0,57,0.00,,,0.00,Wunderground v.1.15,2013-08-16 12:55:00,
2013-08-16 08:03:00,64.0,48.5,30.18,North,-999,0.0,0.0,57,0.00,,,-99.99,WeatherLink 6.0.3,2013-08-16 13:03:00,
2013-08-16 08:05:00,64.1,48.5,30.18,North,-999,0.0,0.0,57,0.00,,,-99.99,WeatherLink 6.0.3,2013-08-16 13:05:00,
2013-08-16 08:10:00,64.1,48.5,30.18,SE,126,0.0,0.0,57,0.00,,,0.00,Wunderground v.1.15,2013-08-16 13:10:00,
2013-08-16 08:15:00,64.2,48.6,30.18,SE,126,0.0,0.0,57,0.00,,,0.00,Wunderground v.1.15,2013-08-16 13:15:00,
2013-08-16 08:20:00,64.3,48.7,30.19,SE,125,0.0,0.0,57,0.00,,,0.00,Wunderground v.1.15,2013-08-16 13:20:00,
2013-08-16 08:25:00,64.5,48.4,30.19,SE,126,0.0,0.0,56,0.00,,,0.00,Wunderground v.1.15,2013-08-16 13:25:00,
2013-08-16 08:30:00,64.7,48.6,30.19,SE,125,0.0,0.0,56,0.00,,,0.00,Wunderground v.1.15,2013-08-16 13:30:00,
2013-08-16 08:35:00,64.7,49.1,30.19,SE,125,0.0,0.0,57,0.00,,,0.00,Wunderground v.1.15,2013-08-16 13:35:00,
2013-08-16 08:40:00,64.8,48.7,30.19,SE,126,0.0,0.0,56,0.00,,,0.00,Wunderground v.1.15,2013-08-16 13:40:00,
2013-08-16 08:45:00,64.9,48.8,30.19,SE,126,0.0,0.0,56,0.00,,,0.00,Wunderground v.1.15,2013-08-16 13:45:00,
2013-08-16 08:50:00,65.0,49.4,30.20,North,-999,0.0,0.0,57,0.00,,,-99.99,WeatherLink 6.0.3,2013-08-16 13:50:00,
2013-08-16 08:54:00,65.0,49.4,30.19,SE,126,0.0,0.0,57,0.00,,,0.00,Wunderground v.1.15,2013-08-16 13:54:00,
2013-08-16 08:59:00,65.1,50.0,30.20,SE,125,0.0,0.0,58,0.00,,,0.00,Wunderground v.1.15,2013-08-16 13:59:00,
2013-08-16 09:05:00,65.3,50.1,30.20,SE,126,0.0,0.0,58,0.00,,,0.00,Wunderground v.1.15,2013-08-16 14:05:00,
2013-08-16 09:10:00,65.6,50.4,30.20,SE,125,0.0,0.0,58,0.00,,,0.00,Wunderground v.1.15,2013-08-16 14:10:00,
2013-08-16 09:15:00,65.7,51.4,30.19,SE,126,0.0,0.0,60,0.00,,,0.00,Wunderground v.1.15,2013-08-16 14:15:00,
2013-08-16 09:20:00,66.0,51.7,30.19,SE,126,0.0,0.0,60,0.00,,,0.00,Wunderground v.1.15,2013-08-16 14:20:00,
2013-08-16 09:25:00,66.4,52.1,30.20,SE,125,0.0,0.0,60,0.00,,,0.00,Wunderground v.1.15,2013-08-16 14:25:00,
2013-08-16 09:30:00,66.8,53.4,30.20,SE,126,0.0,0.0,62,0.00,,,0.00,Wunderground v.1.15,2013-08-16 14:30:00,
2013-08-16 09:35:00,67.9,55.3,30.19,SE,135,0.0,4.0,64,0.00,,,-99.99,WeatherLink 6.0.3,2013-08-16 14:35:00,
2013-08-16 09:40:00,68.5,56.7,30.19,SE,125,0.0,0.0,66,0.00,,,0.00,Wunderground v.1.15,2013-08-16 14:40:00,
2013-08-16 09:45:00,68.5,57.1,30.19,SE,126,0.0,0.0,67,0.00,,,0.00,Wunderground v.1.15,2013-08-16 14:45:00,
2013-08-16 09:50:00,68.5,57.1,30.19,SE,135,0.0,1.0,67,0.00,,,-99.99,WeatherLink 6.0.3,2013-08-16 14:50:00,
2013-08-16 09:54:00,68.5,57.1,30.19,SE,128,0.0,0.0,67,0.00,,,0.00,Wunderground v.1.15,2013-08-16 14:54:00,
2013-08-16 09:59:00,68.5,57.5,30.19,SE,128,0.0,0.0,68,0.00,,,0.00,Wunderground v.1.15,2013-08-16 14:59:00,
2013-08-16 10:04:00,69.1,58.1,30.19,SE,128,0.0,0.0,68,0.00,,,0.00,Wunderground v.1.15,2013-08-16 15:04:00,
2013-08-16 10:05:00,69.2,58.2,30.19,North,-999,0.0,0.0,68,0.00,,,-99.99,WeatherLink 6.0.3,2013-08-16 15:05:00,
2013-08-16 10:10:00,69.5,58.5,30.19,SE,132,0.0,0.0,68,0.00,,,0.00,Wunderground v.1.15,2013-08-16 15:10:00,
2013-08-16 10:15:00,69.7,58.7,30.19,SE,132,0.0,0.0,68,0.00,,,0.00,Wunderground v.1.15,2013-08-16 15:15:00,
2013-08-16 10:20:00,70.1,59.0,30.19,SE,132,0.0,0.0,68,0.00,,,0.00,Wunderground v.1.15,2013-08-16 15:20:00,
2013-08-16 10:25:00,70.3,59.2,30.19,SE,134,0.0,0.0,68,0.00,,,0.00,Wunderground v.1.15,2013-08-16 15:25:00,
2013-08-16 10:30:00,70.6,59.5,30.19,SE,134,0.0,0.0,68,0.00,,,0.00,Wunderground v.1.15,2013-08-16 15:30:00,
2013-08-16 10:35:00,71.3,60.2,30.19,SE,135,0.0,3.0,68,0.00,,,-99.99,WeatherLink 6.0.3,2013-08-16 15:35:00,
2013-08-16 10:39:00,71.4,60.3,30.19,SE,134,0.0,0.0,68,0.00,,,0.00,Wunderground v.1.15,2013-08-16 15:39:00,
2013-08-16 10:44:00,71.6,60.5,30.20,SE,134,0.0,0.0,68,0.00,,,0.00,Wunderground v.1.15,2013-08-16 15:44:00,
2013-08-16 10:49:00,71.8,60.7,30.19,SE,134,0.0,0.0,68,0.00,,,0.00,Wunderground v.1.15,2013-08-16 15:49:00,
2013-08-16 10:50:00,71.8,60.2,30.20,SE,135,0.0,1.0,67,0.00,,,-99.99,WeatherLink 6.0.3,2013-08-16 15:50:00,
2013-08-16 10:55:00,71.8,60.2,30.19,SE,135,0.0,0.0,67,0.00,,,0.00,Wunderground v.1.15,2013-08-16 15:55:00,
2013-08-16 11:00:00,71.9,60.3,30.20,SE,137,0.0,0.0,67,0.00,,,0.00,Wunderground v.1.15,2013-08-16 16:00:00,
2013-08-16 11:05:00,72.1,60.5,30.20,SE,137,0.0,0.0,67,0.00,,,0.00,Wunderground v.1.15,2013-08-16 16:05:00,
2013-08-16 11:10:00,72.4,60.8,30.20,SE,138,0.0,0.0,67,0.00,,,0.00,Wunderground v.1.15,2013-08-16 16:10:00,
2013-08-16 11:15:00,72.7,60.7,30.20,SE,138,0.0,0.0,66,0.00,,,0.00,Wunderground v.1.15,2013-08-16 16:15:00,
2013-08-16 11:20:00,72.8,60.3,30.20,SE,140,0.0,0.0,65,0.00,,,0.00,Wunderground v.1.15,2013-08-16 16:20:00,
2013-08-16 11:25:00,73.3,61.7,30.19,SE,140,0.0,0.0,67,0.00,,,0.00,Wunderground v.1.15,2013-08-16 16:25:00,
2013-08-16 11:30:00,73.9,62.2,30.19,SE,140,0.0,0.0,67,0.00,,,0.00,Wunderground v.1.15,2013-08-16 16:30:00,
2013-08-16 11:35:00,74.0,61.5,30.19,SE,135,0.0,1.0,65,0.00,,,-99.99,WeatherLink 6.0.3,2013-08-16 16:35:00,
2013-08-16 11:39:00,74.0,61.5,30.19,SE,140,0.0,0.0,65,0.00,,,0.00,Wunderground v.1.15,2013-08-16 16:39:00,
2013-08-16 11:44:00,74.5,60.6,30.20,SE,138,0.0,3.0,62,0.00,,,0.00,Wunderground v.1.15,2013-08-16 16:44:00,
2013-08-16 11:49:00,74.7,61.3,30.20,SE,138,1.0,1.0,63,0.00,,,0.00,Wunderground v.1.15,2013-08-16 16:49:00,
2013-08-16 11:50:00,74.8,60.9,30.20,SE,135,0.0,1.0,62,0.00,,,-99.99,WeatherLink 6.0.3,2013-08-16 16:50:00,
2013-08-16 11:54:00,74.7,60.8,30.20,SE,138,0.0,1.0,62,0.00,,,0.00,Wunderground v.1.15,2013-08-16 16:54:00,
2013-08-16 11:59:00,74.7,61.3,30.19,SE,139,0.0,0.0,63,0.00,,,0.00,Wunderground v.1.15,2013-08-16 16:59:00,
2013-08-16 12:04:00,74.5,61.1,30.19,SE,139,0.0,0.0,63,0.00,,,0.00,Wunderground v.1.15,2013-08-16 17:04:00,
2013-08-16 12:05:00,74.4,60.5,30.19,North,-999,0.0,0.0,62,0.00,,,-99.99,WeatherLink 6.0.3,2013-08-16 17:05:00,
2013-08-16 12:10:00,74.6,61.6,30.19,SE,139,0.0,0.0,64,0.00,,,0.00,Wunderground v.1.15,2013-08-16 17:10:00,
2013-08-16 12:15:00,74.5,60.2,30.19,SE,141,0.0,0.0,61,0.00,,,0.00,Wunderground v.1.15,2013-08-16 17:15:00,
2013-08-16 12:20:00,74.5,60.2,30.19,North,-999,0.0,0.0,61,0.00,,,-99.99,WeatherLink 6.0.3,2013-08-16 17:20:00,
2013-08-16 12:25:00,74.9,60.5,30.19,SE,142,0.0,0.0,61,0.00,,,0.00,Wunderground v.1.15,2013-08-16 17:25:00,
2013-08-16 12:30:00,75.6,61.7,30.19,SE,142,0.0,0.0,62,0.00,,,0.00,Wunderground v.1.15,2013-08-16 17:30:00,
2013-08-16 12:35:00,76.0,61.6,30.19,SE,141,0.0,0.0,61,0.00,,,0.00,Wunderground v.1.15,2013-08-16 17:35:00,
2013-08-16 12:40:00,76.5,62.0,30.19,SE,141,0.0,0.0,61,0.00,,,0.00,Wunderground v.1.15,2013-08-16 17:40:00,
2013-08-16 12:48:00,76.7,62.7,30.19,SE,135,0.0,1.0,62,0.00,,,-99.99,WeatherLink 6.0.3,2013-08-16 17:48:00,
2013-08-16 12:50:00,76.7,61.8,30.19,SE,135,0.0,1.0,60,0.00,,,-99.99,WeatherLink 6.0.3,2013-08-16 17:50:00,
2013-08-16 12:54:00,76.9,62.0,30.19,SE,138,0.0,0.0,60,0.00,,,0.00,Wunderground v.1.15,2013-08-16 17:54:00,
2013-08-16 13:00:00,77.1,61.7,30.19,SE,137,0.0,0.0,59,0.00,,,0.00,Wunderground v.1.15,2013-08-16 18:00:00,
2013-08-16 13:04:00,77.1,61.2,30.19,SE,138,0.0,0.0,58,0.00,,,0.00,Wunderground v.1.15,2013-08-16 18:04:00,
2013-08-16 13:05:00,77.0,62.0,30.18,SE,135,1.0,3.0,60,0.00,,,-99.99,WeatherLink 6.0.3,2013-08-16 18:05:00,
2013-08-16 13:10:00,76.7,61.8,30.18,SE,139,1.0,1.0,60,0.00,,,0.00,Wunderground v.1.15,2013-08-16 18:10:00,
2013-08-16 13:15:00,77.1,62.1,30.18,SE,138,0.0,1.0,60,0.00,,,0.00,Wunderground v.1.15,2013-08-16 18:15:00,
2013-08-16 13:20:00,77.0,62.0,30.18,North,-999,0.0,0.0,60,0.00,,,-99.99,WeatherLink 6.0.3,2013-08-16 18:20:00,
2013-08-16 13:24:00,77.0,62.5,30.18,SE,136,0.0,0.0,61,0.00,,,0.00,Wunderground v.1.15,2013-08-16 18:24:00,
2013-08-16 13:29:00,76.7,61.8,30.18,SE,140,0.0,1.0,60,0.00,,,0.00,Wunderground v.1.15,2013-08-16 18:29:00,
2013-08-16 13:34:00,76.5,62.0,30.18,SE,138,0.0,1.0,61,0.00,,,0.00,Wunderground v.1.15,2013-08-16 18:34:00,
2013-08-16 13:35:00,76.4,62.0,30.18,North,-999,0.0,0.0,61,0.00,,,-99.99,WeatherLink 6.0.3,2013-08-16 18:35:00,
2013-08-16 13:39:00,76.5,62.5,30.18,SE,137,0.0,3.0,62,0.00,,,0.00,Wunderground v.1.15,2013-08-16 18:39:00,
2013-08-16 13:44:00,76.5,62.5,30.18,SE,136,0.0,3.0,62,0.00,,,0.00,Wunderground v.1.15,2013-08-16 18:44:00,
2013-08-16 13:50:00,76.9,62.0,30.18,ESE,112,0.0,4.0,60,0.00,,,-99.99,WeatherLink 6.0.3,2013-08-16 18:50:00,
2013-08-16 13:55:00,76.9,62.4,30.17,ESE,105,1.0,1.0,61,0.00,,,0.00,Wunderground v.1.15,2013-08-16 18:55:00,
2013-08-16 14:00:00,77.1,63.1,30.17,East,89,1.0,1.0,62,0.00,,,0.00,Wunderground v.1.15,2013-08-16 19:00:00,
2013-08-16 14:05:00,77.0,63.0,30.18,East,88,1.0,1.0,62,0.00,,,0.00,Wunderground v.1.15,2013-08-16 19:05:00,
2013-08-16 14:10:00,76.7,62.7,30.17,East,88,0.0,2.0,62,0.00,,,0.00,Wunderground v.1.15,2013-08-16 19:10:00,
2013-08-16 14:15:00,76.7,62.7,30.17,East,88,1.0,2.0,62,0.00,,,0.00,Wunderground v.1.15,2013-08-16 19:15:00,
2013-08-16 14:20:00,76.8,63.2,30.17,East,90,1.0,5.0,63,0.00,,,-99.99,WeatherLink 6.0.3,2013-08-16 19:20:00,
2013-08-16 14:24:00,76.9,63.3,30.17,East,88,1.0,1.0,63,0.00,,,0.00,Wunderground v.1.15,2013-08-16 19:24:00,
2013-08-16 14:30:00,76.7,62.2,30.17,East,88,0.0,0.0,61,0.00,,,0.00,Wunderground v.1.15,2013-08-16 19:30:00,
2013-08-16 14:35:00,76.5,62.5,30.16,East,90,0.0,1.0,62,0.00,,,-99.99,WeatherLink 6.0.3,2013-08-16 19:35:00,
2013-08-16 14:39:00,76.6,62.6,30.16,East,87,0.0,0.0,62,0.00,,,0.00,Wunderground v.1.15,2013-08-16 19:39:00,
2013-08-16 14:44:00,77.1,63.5,30.16,East,94,0.0,0.0,63,0.00,,,0.00,Wunderground v.1.15,2013-08-16 19:44:00,
2013-08-16 14:49:00,77.3,62.8,30.16,East,96,0.0,0.0,61,0.00,,,0.00,Wunderground v.1.15,2013-08-16 19:49:00,
2013-08-16 14:50:00,77.4,62.9,30.16,East,90,0.0,5.0,61,0.00,,,-99.99,WeatherLink 6.0.3,2013-08-16 19:50:00,
2013-08-16 14:54:00,77.6,63.1,30.16,ESE,103,1.0,1.0,61,0.00,,,0.00,Wunderground v.1.15,2013-08-16 19:54:00,
2013-08-16 14:59:00,78.1,64.0,30.16,ESE,103,1.0,1.0,62,0.00,,,0.00,Wunderground v.1.15,2013-08-16 19:59:00,
2013-08-16 15:05:00,77.9,62.9,30.16,ESE,103,0.0,1.0,60,0.00,,,0.00,Wunderground v.1.15,2013-08-16 20:05:00,
2013-08-16 15:10:00,77.6,63.5,30.16,ESE,102,0.0,0.0,62,0.00,,,0.00,Wunderground v.1.15,2013-08-16 20:10:00,
2013-08-16 15:15:00,77.3,64.2,30.16,ESE,102,0.0,0.0,64,0.00,,,0.00,Wunderground v.1.15,2013-08-16 20:15:00,
2013-08-16 15:20:00,77.5,62.5,30.16,ESE,112,0.0,1.0,60,0.00,,,-99.99,WeatherLink 6.0.3,2013-08-16 20:20:00,
2013-08-16 15:24:00,77.9,62.9,30.16,ESE,103,0.0,0.0,60,0.00,,,0.00,Wunderground v.1.15,2013-08-16 20:24:00,
2013-08-16 15:29:00,77.9,63.4,30.16,ESE,103,0.0,0.0,61,0.00,,,0.00,Wunderground v.1.15,2013-08-16 20:29:00,
2013-08-16 15:34:00,77.9,63.8,30.16,ESE,103,0.0,0.0,62,0.00,,,0.00,Wunderground v.1.15,2013-08-16 20:34:00,
2013-08-16 15:35:00,77.9,64.3,30.16,North,-999,0.0,0.0,63,0.00,,,-99.99,WeatherLink 6.0.3,2013-08-16 20:35:00,
2013-08-16 15:39:00,77.8,63.3,30.16,ESE,102,0.0,0.0,61,0.00,,,0.00,Wunderground v.1.15,2013-08-16 20:39:00,
2013-08-16 15:44:00,77.7,62.7,30.16,East,98,0.0,2.0,60,0.00,,,0.00,Wunderground v.1.15,2013-08-16 20:44:00,
2013-08-16 15:50:00,77.6,62.1,30.16,East,90,0.0,5.0,59,0.00,,,-99.99,WeatherLink 6.0.3,2013-08-16 20:50:00,
2013-08-16 15:55:00,77.8,63.3,30.16,East,84,1.0,1.0,61,0.00,,,0.00,Wunderground v.1.15,2013-08-16 20:55:00,
2013-08-16 16:00:00,78.6,63.6,30.16,East,84,0.0,0.0,60,0.00,,,0.00,Wunderground v.1.15,2013-08-16 21:00:00,
2013-08-16 16:05:00,79.2,61.1,30.16,ENE,67,1.0,4.0,54,0.00,,,-99.99,WeatherLink 6.0.3,2013-08-16 21:05:00,
2013-08-16 16:10:00,79.0,61.5,30.16,ENE,66,1.0,3.0,55,0.00,,,0.00,Wunderground v.1.15,2013-08-16 21:10:00,
2013-08-16 16:15:00,79.1,62.6,30.16,ENE,65,0.0,3.0,57,0.00,,,0.00,Wunderground v.1.15,2013-08-16 21:15:00,
2013-08-16 16:20:00,78.6,63.1,30.16,ENE,67,0.0,3.0,59,0.00,,,-99.99,WeatherLink 6.0.3,2013-08-16 21:20:00,
2013-08-16 16:24:00,78.0,63.0,30.16,ENE,65,0.0,0.0,60,0.00,,,0.00,Wunderground v.1.15,2013-08-16 21:24:00,
2013-08-16 16:29:00,77.8,63.3,30.16,ENE,65,0.0,0.0,61,0.00,,,0.00,Wunderground v.1.15,2013-08-16 21:29:00,
2013-08-16 16:34:00,77.9,62.4,30.17,ENE,64,0.0,0.0,59,0.00,,,0.00,Wunderground v.1.15,2013-08-16 21:34:00,
2013-08-16 16:35:00,78.0,62.5,30.16,ENE,67,0.0,1.0,59,0.00,,,-99.99,WeatherLink 6.0.3,2013-08-16 21:35:00,
2013-08-16 16:39:00,78.2,63.2,30.16,ENE,64,0.0,0.0,60,0.00,,,0.00,Wunderground v.1.15,2013-08-16 21:39:00,
2013-08-16 16:45:00,78.3,62.8,30.17,ENE,64,0.0,0.0,59,0.00,,,0.00,Wunderground v.1.15,2013-08-16 21:45:00,
2013-08-16 16:50:00,77.8,64.2,30.17,ENE,64,0.0,0.0,63,0.00,,,0.00,Wunderground v.1.15,2013-08-16 21:50:00,
2013-08-16 16:55:00,77.5,64.4,30.16,ENE,63,0.0,0.0,64,0.00,,,0.00,Wunderground v.1.15,2013-08-16 21:55:00,
2013-08-16 17:00:00,77.5,63.9,30.16,ENE,64,0.0,0.0,63,0.00,,,0.00,Wunderground v.1.15,2013-08-16 22:00:00,
2013-08-16 17:05:00,77.7,64.1,30.16,ENE,67,0.0,2.0,63,0.00,,,-99.99,WeatherLink 6.0.3,2013-08-16 22:05:00,
2013-08-16 17:09:00,77.4,62.9,30.16,East,92,1.0,1.0,61,0.00,,,0.00,Wunderground v.1.15,2013-08-16 22:09:00,
2013-08-16 17:14:00,77.3,64.2,30.16,ENE,78,1.0,1.0,64,0.00,,,0.00,Wunderground v.1.15,2013-08-16 22:14:00,
2013-08-16 17:19:00,77.2,64.1,30.16,ENE,75,1.0,1.0,64,0.00,,,0.00,Wunderground v.1.15,2013-08-16 22:19:00,
2013-08-16 17:20:00,77.2,64.1,30.16,ENE,67,1.0,5.0,64,0.00,,,-99.99,WeatherLink 6.0.3,2013-08-16 22:20:00,
2013-08-16 17:24:00,77.3,63.7,30.16,ENE,75,0.0,5.0,63,0.00,,,0.00,Wunderground v.1.15,2013-08-16 22:24:00,
2013-08-16 17:29:00,77.3,63.7,30.17,ENE,74,0.0,0.0,63,0.00,,,0.00,Wunderground v.1.15,2013-08-16 22:29:00,
2013-08-16 17:34:00,77.2,64.1,30.17,ENE,74,0.0,0.0,64,0.00,,,0.00,Wunderground v.1.15,2013-08-16 22:34:00,
2013-08-16 17:35:00,77.1,63.1,30.17,ENE,67,1.0,7.0,62,0.00,,,-99.99,WeatherLink 6.0.3,2013-08-16 22:35:00,
2013-08-16 17:39:00,77.1,63.5,30.16,ENE,63,0.0,1.0,63,0.00,,,0.00,Wunderground v.1.15,2013-08-16 22:39:00,
2013-08-16 17:45:00,77.3,63.7,30.16,ENE,61,1.0,1.0,63,0.00,,,0.00,Wunderground v.1.15,2013-08-16 22:45:00,
2013-08-16 17:50:00,77.0,63.4,30.17,NE,46,1.0,5.0,63,0.00,,,0.00,Wunderground v.1.15,2013-08-16 22:50:00,
2013-08-16 18:00:00,76.1,63.5,30.16,NE,48,0.0,0.0,65,0.00,,,0.00,Wunderground v.1.15,2013-08-16 23:00:00,
2013-08-16 18:05:00,75.9,63.3,30.17,ENE,67,1.0,5.0,65,0.00,,,-99.99,WeatherLink 6.0.3,2013-08-16 23:05:00,
2013-08-16 18:09:00,75.6,63.0,30.17,ENE,69,1.0,1.0,65,0.00,,,0.00,Wunderground v.1.15,2013-08-16 23:09:00,
2013-08-16 18:14:00,75.7,63.5,30.17,ENE,68,0.0,1.0,66,0.00,,,0.00,Wunderground v.1.15,2013-08-16 23:14:00,
2013-08-16 18:19:00,75.9,63.3,30.17,ENE,69,0.0,0.0,65,0.00,,,0.00,Wunderground v.1.15,2013-08-16 23:19:00,
2013-08-16 18:20:00,75.9,62.8,30.17,ENE,67,1.0,5.0,64,0.00,,,-99.99,WeatherLink 6.0.3,2013-08-16 23:20:00,
2013-08-16 18:24:00,75.7,63.1,30.17,ENE,65,1.0,1.0,65,0.00,,,0.00,Wunderground v.1.15,2013-08-16 23:24:00,
2013-08-16 18:29:00,75.6,63.0,30.17,ENE,66,0.0,0.0,65,0.00,,,0.00,Wunderground v.1.15,2013-08-16 23:29:00,
2013-08-16 18:35:00,75.5,63.3,30.16,ENE,67,0.0,1.0,66,0.00,,,-99.99,WeatherLink 6.0.3,2013-08-16 23:35:00,
2013-08-16 18:40:00,75.4,63.2,30.17,ENE,65,0.0,0.0,66,0.00,,,0.00,Wunderground v.1.15,2013-08-16 23:40:00,
2013-08-16 18:45:00,75.3,63.2,30.17,ENE,68,0.0,0.0,66,0.00,,,0.00,Wunderground v.1.15,2013-08-16 23:45:00,
2013-08-16 18:50:00,75.1,63.4,30.17,ENE,70,0.0,0.0,67,0.00,,,0.00,Wunderground v.1.15,2013-08-16 23:50:00,
2013-08-16 18:55:00,75.0,62.9,30.16,ENE,71,0.0,0.0,66,0.00,,,0.00,Wunderground v.1.15,2013-08-16 23:55:00,
2013-08-16 19:00:00,74.7,62.6,30.16,ENE,71,0.0,0.0,66,0.00,,,0.00,Wunderground v.1.15,2013-08-17 00:00:00,
2013-08-16 19:05:00,74.4,62.3,30.16,ENE,67,0.0,5.0,66,0.00,,,-99.99,WeatherLink 6.0.3,2013-08-17 00:05:00,
2013-08-16 19:09:00,74.3,62.2,30.16,ENE,72,0.0,3.0,66,0.00,,,0.00,Wunderground v.1.15,2013-08-17 00:09:00,
2013-08-16 19:18:00,74.2,62.1,30.16,ENE,67,0.0,4.0,66,0.00,,,-99.99,WeatherLink 6.0.3,2013-08-17 00:18:00,
2013-08-16 19:20:00,73.7,62.1,30.17,North,-999,0.0,0.0,67,0.00,,,-99.99,WeatherLink 6.0.3,2013-08-17 00:20:00,
2013-08-16 19:24:00,73.5,61.9,30.17,ENE,74,0.0,0.0,67,0.00,,,0.00,Wunderground v.1.15,2013-08-17 00:24:00,
2013-08-16 19:29:00,73.3,62.1,30.17,ENE,74,0.0,0.0,68,0.00,,,0.00,Wunderground v.1.15,2013-08-17 00:29:00,
2013-08-16 19:34:00,73.0,61.8,30.17,ENE,73,0.0,0.0,68,0.00,,,0.00,Wunderground v.1.15,2013-08-17 00:34:00,
2013-08-16 19:35:00,72.9,61.7,30.17,North,-999,0.0,0.0,68,0.00,,,-99.99,WeatherLink 6.0.3,2013-08-17 00:35:00,
2013-08-16 19:39:00,72.7,61.5,30.17,ENE,72,0.0,0.0,68,0.00,,,0.00,Wunderground v.1.15,2013-08-17 00:39:00,
2013-08-16 19:44:00,72.3,61.1,30.17,ENE,73,0.0,0.0,68,0.00,,,0.00,Wunderground v.1.15,2013-08-17 00:44:00,
2013-08-16 19:50:00,72.0,60.9,30.17,ENE,72,0.0,0.0,68,0.00,,,0.00,Wunderground v.1.15,2013-08-17 00:50:00,
2013-08-16 19:55:00,71.8,60.2,30.17,ENE,72,0.0,0.0,67,0.00,,,0.00,Wunderground v.1.15,2013-08-17 00:55:00,
2013-08-16 20:00:00,71.3,59.8,30.17,ENE,73,0.0,0.0,67,0.00,,,0.00,Wunderground v.1.15,2013-08-17 01:00:00,
2013-08-16 20:05:00,71.0,59.5,30.17,ENE,73,0.0,0.0,67,0.00,,,0.00,Wunderground v.1.15,2013-08-17 01:05:00,
2013-08-16 20:10:00,70.6,58.7,30.18,ENE,72,0.0,0.0,66,0.00,,,0.00,Wunderground v.1.15,2013-08-17 01:10:00,
2013-08-16 20:15:00,70.1,57.8,30.18,ENE,73,0.0,0.0,65,0.00,,,0.00,Wunderground v.1.15,2013-08-17 01:15:00,
2013-08-16 20:20:00,69.4,57.1,30.18,North,-999,0.0,0.0,65,0.00,,,-99.99,WeatherLink 6.0.3,2013-08-17 01:20:00,
2013-08-16 20:24:00,69.1,56.4,30.18,ENE,73,0.0,0.0,64,0.00,,,0.00,Wunderground v.1.15,2013-08-17 01:24:00,
2013-08-16 20:29:00,68.8,55.7,30.18,ENE,73,0.0,0.0,63,0.00,,,0.00,Wunderground v.1.15,2013-08-17 01:29:00,
2013-08-16 20:34:00,68.6,55.1,30.18,ENE,73,0.0,0.0,62,0.00,,,0.00,Wunderground v.1.15,2013-08-17 01:34:00,
2013-08-16 20:35:00,68.5,55.0,30.18,North,-999,0.0,0.0,62,0.00,,,-99.99,WeatherLink 6.0.3,2013-08-17 01:35:00,
2013-08-16 20:39:00,68.3,54.8,30.18,ENE,73,0.0,0.0,62,0.00,,,0.00,Wunderground v.1.15,2013-08-17 01:39:00,
2013-08-16 20:44:00,68.1,54.6,30.19,ENE,72,0.0,0.0,62,0.00,,,0.00,Wunderground v.1.15,2013-08-17 01:44:00,
2013-08-16 20:49:00,68.1,54.6,30.19,ENE,74,0.0,0.0,62,0.00,,,0.00,Wunderground v.1.15,2013-08-17 01:49:00,
2013-08-16 20:50:00,68.1,54.6,30.19,ENE,67,0.0,2.0,62,0.00,,,-99.99,WeatherLink 6.0.3,2013-08-17 01:50:00,
2013-08-16 20:54:00,68.1,55.0,30.19,ENE,75,0.0,0.0,63,0.00,,,0.00,Wunderground v.1.15,2013-08-17 01:54:00,
2013-08-16 20:59:00,67.9,54.8,30.19,ENE,76,0.0,0.0,63,0.00,,,0.00,Wunderground v.1.15,2013-08-17 01:59:00,
2013-08-16 21:04:00,67.9,55.3,30.20,ENE,76,0.0,0.0,64,0.00,,,0.00,Wunderground v.1.15,2013-08-17 02:04:00,
2013-08-16 21:05:00,67.9,55.3,30.20,ENE,67,0.0,4.0,64,0.00,,,-99.99,WeatherLink 6.0.3,2013-08-17 02:05:00,
2013-08-16 21:09:00,68.0,55.8,30.20,East,79,1.0,1.0,65,0.00,,,0.00,Wunderground v.1.15,2013-08-17 02:09:00,
2013-08-16 21:14:00,67.9,55.7,30.20,ENE,78,1.0,1.0,65,0.00,,,0.00,Wunderground v.1.15,2013-08-17 02:14:00,
2013-08-16 21:20:00,67.8,55.6,30.20,East,80,0.0,0.0,65,0.00,,,0.00,Wunderground v.1.15,2013-08-17 02:20:00,
2013-08-16 21:25:00,67.7,55.1,30.20,East,80,1.0,1.0,64,0.00,,,0.00,Wunderground v.1.15,2013-08-17 02:25:00,
2013-08-16 21:30:00,67.6,55.4,30.20,East,79,0.0,0.0,65,0.00,,,0.00,Wunderground v.1.15,2013-08-17 02:30:00,
2013-08-16 21:35:00,67.4,54.8,30.21,ENE,67,0.0,3.0,64,0.00,,,-99.99,WeatherLink 6.0.3,2013-08-17 02:35:00,
2013-08-16 21:39:00,67.3,54.3,30.21,ENE,77,0.0,0.0,63,0.00,,,0.00,Wunderground v.1.15,2013-08-17 02:39:00,
2013-08-16 21:44:00,67.0,54.0,30.21,ENE,77,0.0,0.0,63,0.00,,,0.00,Wunderground v.1.15,2013-08-17 02:44:00,
2013-08-16 21:49:00,66.8,53.4,30.21,ENE,77,0.0,0.0,62,0.00,,,0.00,Wunderground v.1.15,2013-08-17 02:49:00,
2013-08-16 21:50:00,66.8,53.4,30.21,North,-999,0.0,0.0,62,0.00,,,-99.99,WeatherLink 6.0.3,2013-08-17 02:50:00,
2013-08-16 21:54:00,66.7,52.8,30.21,ENE,76,0.0,0.0,61,0.00,,,0.00,Wunderground v.1.15,2013-08-17 02:54:00,
2013-08-16 21:59:00,66.5,52.2,30.22,ENE,77,0.0,0.0,60,0.00,,,0.00,Wunderground v.1.15,2013-08-17 02:59:00,
2013-08-16 22:04:00,66.3,51.5,30.21,ENE,77,0.0,0.0,59,0.00,,,0.00,Wunderground v.1.15,2013-08-17 03:04:00,
2013-08-16 22:05:00,66.2,51.4,30.21,North,-999,0.0,0.0,59,0.00,,,-99.99,WeatherLink 6.0.3,2013-08-17 03:05:00,
2013-08-16 22:10:00,66.1,50.9,30.22,ENE,77,0.0,0.0,58,0.00,,,0.00,Wunderground v.1.15,2013-08-17 03:10:00,
2013-08-16 22:15:00,65.9,50.2,30.21,ENE,76,0.0,0.0,57,0.00,,,0.00,Wunderground v.1.15,2013-08-17 03:15:00,
2013-08-16 22:20:00,65.7,50.0,30.21,North,-999,0.0,0.0,57,0.00,,,-99.99,WeatherLink 6.0.3,2013-08-17 03:20:00,
2013-08-16 22:24:00,65.7,50.0,30.21,ENE,76,0.0,0.0,57,0.00,,,0.00,Wunderground v.1.15,2013-08-17 03:24:00,
2013-08-16 22:29:00,65.6,49.5,30.21,ENE,77,0.0,0.0,56,0.00,,,0.00,Wunderground v.1.15,2013-08-17 03:29:00,
2013-08-16 22:34:00,65.4,48.8,30.22,ENE,76,0.0,0.0,55,0.00,,,0.00,Wunderground v.1.15,2013-08-17 03:34:00,
2013-08-16 22:35:00,65.4,48.8,30.22,North,-999,0.0,0.0,55,0.00,,,-99.99,WeatherLink 6.0.3,2013-08-17 03:35:00,
2013-08-16 22:39:00,65.3,48.2,30.22,ENE,76,0.0,0.0,54,0.00,,,0.00,Wunderground v.1.15,2013-08-17 03:39:00,
2013-08-16 22:44:00,65.0,47.4,30.22,ENE,77,0.0,0.0,53,0.00,,,0.00,Wunderground v.1.15,2013-08-17 03:44:00,
2013-08-16 22:49:00,64.9,46.8,30.22,ENE,76,0.0,0.0,52,0.00,,,0.00,Wunderground v.1.15,2013-08-17 03:49:00,
2013-08-16 22:50:00,64.8,46.8,30.22,North,-999,0.0,0.0,52,0.00,,,-99.99,WeatherLink 6.0.3,2013-08-17 03:50:00,
2013-08-16 22:54:00,64.7,46.1,30.22,ENE,77,0.0,0.0,51,0.00,,,0.00,Wunderground v.1.15,2013-08-17 03:54:00,
2013-08-16 23:00:00,64.4,45.3,30.22,ENE,77,0.0,0.0,50,0.00,,,0.00,Wunderground v.1.15,2013-08-17 04:00:00,
2013-08-16 23:03:00,64.6,46.1,30.22,North,-999,0.0,0.0,51,0.00,,,-99.99,WeatherLink 6.0.3,2013-08-17 04:03:00,
2013-08-16 23:05:00,64.2,44.6,30.22,North,-999,0.0,0.0,49,0.00,,,-99.99,WeatherLink 6.0.3,2013-08-17 04:05:00,
2013-08-16 23:10:00,64.1,44.5,30.22,ENE,77,0.0,0.0,49,0.00,,,0.00,Wunderground v.1.15,2013-08-17 04:10:00,
2013-08-16 23:14:00,63.9,43.8,30.22,ENE,76,0.0,0.0,48,0.00,,,0.00,Wunderground v.1.15,2013-08-17 04:14:00,
2013-08-16 23:18:00,63.9,43.8,30.22,North,-999,0.0,0.0,48,0.00,,,-99.99,WeatherLink 6.0.3,2013-08-17 04:18:00,
2013-08-16 23:20:00,63.7,42.5,30.22,North,-999,0.0,0.0,46,0.00,,,-99.99,WeatherLink 6.0.3,2013-08-17 04:20:00,
2013-08-16 23:24:00,63.5,42.3,30.22,ENE,77,0.0,0.0,46,0.00,,,0.00,Wunderground v.1.15,2013-08-17 04:24:00,
2013-08-16 23:29:00,63.3,41.6,30.22,ENE,77,0.0,0.0,45,0.00,,,0.00,Wunderground v.1.15,2013-08-17 04:29:00,
2013-08-16 23:34:00,63.2,40.9,30.22,ENE,77,0.0,0.0,44,0.00,,,0.00,Wunderground v.1.15,2013-08-17 04:34:00,
2013-08-16 23:35:00,63.2,40.9,30.22,North,-999,0.0,0.0,44,0.00,,,-99.99,WeatherLink 6.0.3,2013-08-17 04:35:00,
2013-08-16 23:39:00,63.1,40.8,30.22,ENE,76,0.0,0.0,44,0.00,,,0.00,Wunderground v.1.15,2013-08-17 04:39:00,
2013-08-16 23:45:00,63.0,40.1,30.22,ENE,76,0.0,0.0,43,0.00,,,0.00,Wunderground v.1.15,2013-08-17 04:45:00,
2013-08-16 23:50:00,62.8,40.0,30.23,North,-999,0.0,0.0,43,0.00,,,-99.99,WeatherLink 6.0.3,2013-08-17 04:50:00,
2013-08-16 23:54:00,62.7,39.3,30.22,ENE,77,0.0,0.0,42,0.00,,,0.00,Wunderground v.1.15,2013-08-17 04:54:00,
2013-08-16 23:59:00,62.5,39.1,30.22,ENE,76,0.0,0.0,42,0.00,,,0.00,Wunderground v.1.15,2013-08-17 04:59:00,